Temperature
17 17 17 17 17 17 18 18 18 18 18 18 18 18 17 17 17 16 16 16 16 16 16 16 16 15 15 15 15 15 15 15 15 15 15 15 14 14
16 16 17 17 17 17 17 17 17 18 18 18 18 17 17 17 16 16 16 16 16 16 16 16 16 15 15 15 15 15 15 15 15 15 15 14 14 14
16 16 16 16 16 17 17 17 17 17 17 17 17 17 17 17 17 16 16 16 16 16 16 16 16 15 15 15 15 15 15 15 15 14 14 14 14 14
16 16 16 16 16 16 16 16 16 17 17 17 17 17 17 17 16 16 16 16 16 16 16 16 16 16 15 15 15 15 15 15 15 14 14 14 14 14
16 16 16 16 16 16 16 16 16 16 16 16 16 16 16 16 16 16 16 16 16 16 16 16 16 15 15 15 15 15 15 15 14 14 14 14 14 14
16 16 16 16 16 16 16 16 16 16 16 16 16 16 16 16 16 16 16 16 16 16 15 15 15 15 15 15 15 15 15 15 14 14 14 14 14 13
16 16 16 15 15 15 15 15 15 15 15 15 15 15 15 15 15 15 15 15 15 15 15 15 15 15 15 15 15 15 15 14 14 14 14 14 14 13
16 16 16 15 15 15 15 15 15 15 15 15 15 15 15 15 15 15 15 14 14 15 14 15 14 14 14 14 14 14 14 14 14 14 14 14 13 13
15 15 15 15 15 15 15 15 15 15 15 15 15 15 15 14 14 14 14 14 14 14 14 14 14 14 14 14 14 14 14 14 14 13 13 13 13 13
15 15 15 15 15 15 15 15 15 15 14 14 14 14 14 14 14 13 13 13 13 13 13 13 13 13 13 13 13 13 13 13 13 13 13 13 13 13
15 14 14 14 14 14 14 14 14 14 14 13 13 13 13 13 13 13 13 12 12 12 12 12 12 12 12 12 13 13 13 13 13 13 13 13 12 12
14 14 14 14 14 14 14 13 13 13 13 13 13 13 13 13 13 12 12 12 12 11 12 11 12 11 11 12 12 12 12 12 12 12 12 12 12 12
14 14 13 13 13 13 13 13 13 12 12 12 12 12 12 12 12 12 12 12 11 11 11 11 11 11 10 10 11 11 11 11 11 11 11 11 11 11
13 13 13 13 13 13 12 12 12 12 12 12 12 12 12 12 11 11 11 11 11 11 11 10 10 10 10 10 10 10 10 10 11 11 11 11 11 11
12 12 12 12 12 12 12 12 12 11 11 11 11 11 11 11 11 11 11 11 10 10 10 10 10 10 10 9 9 9 9 10 10 10 10 10 10 10
12 12 12 12 12 12 12 11 11 11 11 11 11 10 10 10 10 10 10 10 10 10 10 10 10 9 9 9 9 9 9 9 9 9 9 9 10 10
11 11 11 11 11 11 11 11 11 11 10 10 10 10 10 10 10 10 9 9 9 9 9 9 9 9 9 9 9 9 9 9 9 9 9 9 9 9
11 11 10 10 10 10 10 10 10 10 10 9 9 9 9 9 9 9 9 9 9 9 9 9 8 8 8 8 8 8 8 8 8 8 8 8 9 9
10 10 10 10 9 9 9 9 9 9 9 9 9 8 8 8 8 8 8 8 8 8 8 8 8 7 7 7 8 8 8 8 8 8 8 8 8 8
9 9 9 9 9 9 8 8 8 8 8 8 8 7 7 7 7 7 7 7 7 7 7 7 7 7 7 6 6 7 8 7 7 7 7 8 8 8
8 8 8 8 8 8 7 7 7 7 7 7 7 7 7 6 6 6 6 6 6 6 6 6 6 6 6 6 6 6 7 7 7 7 7 7 7 7
7 7 7 7 7 7 7 6 6 6 6 6 6 6 6 6 5 5 5 5 5 5 5 6 6 6 6 6 5 6 6 7 7 7 7 7 7 7
6 6 6 6 6 6 6 6 5 5 5 5 5 5 5 5 5 5 5 5 5 5 5 5 5 5 5 5 5 5 6 6 6 7 7 8 8 8
Wind_Speed
5 5 4 4 3 3 2 2 2 2 3 3 3 5 6 8 14 14 11 17 19 18 18 18 17 16 15 15 15 14 15 15 15 15 15 15 15 15
4 4 4 4 4 3 2 2 2 2 2 1 2 3 4 5 13 12 10 13 20 20 21 21 20 19 19 18 18 17 17 17 17 16 16 16 16 16
6 6 5 4 3 3 3 3 3 2 3 3 2 1 3 2 4 7 8 9 13 21 23 23 23 22 22 21 20 20 20 19 19 18 18 17 17 17
6 5 5 5 5 4 4 4 3 3 3 3 2 1 3 5 5 5 7 10 11 15 22 24 24 24 24 23 23 23 22 22 21 20 20 19 19 18
6 6 5 6 5 5 5 4 4 5 4 4 4 3 3 4 5 6 7 5 10 12 17 22 23 24 24 25 25 25 25 24 23 22 22 21 21 20
6 5 5 6 5 5 5 5 5 5 4 4 4 4 4 3 3 3 4 4 6 9 8 11 17 22 25 26 26 27 27 26 25 24 24 23 23 22
5 5 5 6 6 5 5 4 5 4 4 4 5 4 4 2 2 3 5 4 5 5 4 5 6 8 13 20 24 26 27 27 27 26 25 25 25 24
6 5 5 5 5 6 5 4 4 5 5 4 5 5 4 3 3 3 3 4 4 3 3 6 5 6 6 12 16 21 24 25 26 26 26 26 26 26
4 4 6 5 5 5 5 6 6 7 7 5 6 6 4 3 3 4 4 5 6 5 5 7 6 7 7 13 14 16 19 21 23 25 26 26 26 26
4 4 3 2 2 2 4 4 5 5 7 6 6 7 6 4 4 5 6 7 7 6 6 8 7 7 8 8 14 16 18 19 21 23 24 25 25 26
3 2 3 3 2 3 4 4 5 5 7 8 8 9 10 11 7 4 5 6 8 7 5 6 7 7 6 6 10 16 17 18 19 21 23 23 24 23
2 2 2 3 3 3 3 4 5 4 5 5 5 8 9 10 11 8 7 7 7 6 5 5 6 5 6 5 5 7 10 14 17 19 21 22 22 14
2 1 1 2 3 4 4 4 5 4 5 6 5 6 6 5 6 6 6 6 7 7 5 4 5 6 7 6 6 6 5 5 8 11 16 20 22 15
2 1 1 1 3 5 5 6 6 5 4 5 5 5 5 5 4 4 5 6 8 8 8 7 6 7 8 10 8 6 6 6 6 7 7 13 16 19
3 4 3 3 4 4 6 7 6 4 4 5 5 5 4 4 4 4 5 5 7 10 12 10 8 7 7 9 9 8 8 7 7 8 8 7 7 7
3 3 4 6 5 5 4 4 5 5 4 5 5 5 4 5 5 4 5 5 6 7 8 11 8 8 8 9 9 9 8 7 7 9 9 8 7 7
3 3 3 2 2 2 3 3 3 3 4 4 5 5 5 5 5 5 5 6 7 7 6 5 5 6 8 9 9 9 9 9 9 9 8 9 9 8
3 3 3 2 2 3 3 3 3 3 3 4 4 5 5 5 5 5 5 6 7 7 7 6 6 6 7 7 8 9 8 8 8 8 9 10 11 9
2 3 4 4 4 4 4 4 4 4 4 4 4 5 5 6 6 6 6 6 6 7 7 7 6 6 9 11 8 6 8 10 10 10 9 10 11 10
2 4 4 4 5 5 5 5 5 5 5 5 5 5 5 6 6 7 6 6 6 7 8 7 6 6 7 10 10 10 12 11 10 10 11 11 11 12
5 5 5 5 5 5 5 5 6 6 6 6 6 5 5 6 7 7 7 9 8 8 9 8 7 9 7 7 9 10 10 12 13 11 11 11 12 11
6 6 6 6 6 6 6 6 6 6 6 6 7 6 6 7 8 8 8 8 8 8 10 9 8 8 7 9 12 13 13 12 13 17 17 15 10 9
7 7 7 7 7 6 6 7 8 7 6 7 7 7 7 7 7 7 8 8 8 9 10 10 9 8 9 10 11 12 14 14 11 10 10 13 17 19
Wind_Direction
224 226 237 263 263 272 278 278 255 261 247 217 186 179 173 165 170 189 198 205 211 216 221 226 230 234 239 242 246 250 254 257 258 260 261 263 264 264
223 229 222 253 251 243 249 264 264 262 269 237 221 189 177 189 181 200 214 211 213 220 226 229 231 234 238 241 245 249 252 255 257 258 259 260 262 264
223 219 217 245 273 277 246 244 252 249 256 257 243 169 161 193 171 219 227 220 221 226 228 231 233 234 237 241 244 247 250 253 255 257 257 258 260 261
224 228 221 230 233 266 277 264 253 243 242 257 255 248 216 201 199 216 241 249 247 237 229 229 232 234 237 241 243 246 248 250 252 255 256 258 259 260
220 223 224 232 233 236 248 264 266 257 232 244 253 251 239 223 212 223 239 254 266 263 236 230 232 235 238 241 243 245 247 249 251 252 254 256 258 259
224 222 222 227 229 234 242 247 262 273 263 255 258 256 249 236 217 222 245 243 253 265 263 239 234 237 241 243 246 247 249 250 251 251 252 254 255 257
227 224 224 221 220 222 242 239 247 252 259 258 258 262 261 261 249 241 253 257 254 253 269 264 246 242 249 251 251 251 250 249 250 250 251 252 253 254
220 220 227 218 215 216 230 245 253 254 262 263 264 261 264 264 268 273 280 283 277 273 281 279 273 263 253 252 249 248 248 248 248 249 249 250 251 252
213 219 234 229 203 210 221 234 247 248 241 255 265 270 278 288 302 293 285 282 274 279 287 278 270 268 266 272 266 255 251 249 248 248 249 251 252 253
215 211 215 259 262 224 228 234 238 242 237 235 249 262 269 272 267 270 274 275 268 266 263 272 273 270 276 279 282 275 263 256 253 252 251 251 252 254
227 218 199 207 230 232 228 241 252 253 247 250 249 255 259 261 256 263 266 271 277 276 269 271 278 282 281 280 282 281 271 265 261 258 255 254 254 255
211 196 174 202 222 220 231 244 257 269 280 278 265 262 256 255 248 235 245 257 269 277 276 277 283 294 290 278 280 294 290 281 275 268 263 259 258 257
251 197 158 196 228 233 236 246 254 276 282 275 264 257 250 246 240 234 233 241 255 263 279 292 291 290 283 288 289 283 278 279 281 276 270 264 260 249
310 340 94 214 249 249 244 250 263 278 273 276 275 271 269 265 262 254 251 248 249 254 265 267 269 272 279 284 286 284 282 282 279 279 276 277 268 259
338 352 333 283 264 255 242 248 258 256 257 268 276 281 284 288 291 283 277 270 267 268 269 259 255 263 265 274 281 284 289 285 276 278 278 276 274 268
321 309 285 272 262 270 273 244 234 245 255 266 276 282 288 287 283 282 285 286 283 279 269 266 259 258 268 272 276 282 281 281 285 283 280 278 274 269
318 286 275 274 267 262 264 267 259 264 268 274 281 287 288 291 291 292 286 287 283 285 288 284 276 270 262 268 276 277 280 280 278 279 284 285 278 272
330 303 307 315 323 325 320 313 306 311 310 305 306 306 304 303 301 298 292 289 289 291 294 299 302 301 296 282 262 276 283 289 292 289 286 285 284 278
340 323 332 341 348 346 338 331 325 324 322 318 313 309 312 311 308 305 303 301 301 302 302 302 302 303 300 297 292 287 297 296 293 289 283 281 284 282
340 338 343 350 352 343 336 334 333 332 332 328 320 314 314 311 309 306 304 303 304 302 299 299 298 297 293 294 297 296 283 280 288 289 289 286 283 280
1 358 356 348 339 338 339 335 332 328 327 322 315 318 320 316 312 310 307 308 305 299 299 299 296 297 292 292 291 289 289 282 276 277 285 288 288 286
359 353 348 342 344 341 335 331 328 326 327 325 324 323 321 316 313 312 312 312 308 304 304 303 304 305 302 295 293 295 298 297 289 279 268 260 267 275
358 354 351 347 350 348 342 336 332 331 333 330 324 322 321 316 312 309 306 302 300 303 306 306 306 302 297 293 293 293 296 300 300 299 291 280 267 261
Height
1548 1550 1551 1552 1554 1555 1555 1556 1558 1557 1557 1558 1558 1559 1559 1560 1560 1560 1560 1560 1560 1560 1560 1560 1559 1559 1559 1559 1559 1558 1558 1557 1557 1557 1556 1556 1556 1556
1545 1547 1548 1550 1551 1552 1553 1553 1554 1555 1555 1555 1556 1556 1556 1557 1557 1557 1557 1557 1556 1556 1556 1556 1556 1556 1555 1555 1555 1554 1553 1553 1552 1552 1552 1551 1551 1551
1542 1544 1545 1546 1548 1549 1550 1551 1551 1552 1552 1552 1553 1553 1553 1554 1554 1554 1554 1553 1552 1552 1552 1552 1552 1551 1551 1551 1550 1549 1549 1548 1547 1547 1546 1546 1546 1546
1539 1541 1542 1543 1544 1545 1546 1547 1548 1549 1549 1549 1549 1550 1550 1550 1550 1550 1550 1549 1549 1548 1548 1548 1547 1547 1546 1546 1545 1544 1544 1543 1542 1542 1541 1541 1540 1540
1536 1537 1538 1539 1540 1542 1543 1544 1545 1545 1546 1546 1546 1546 1547 1546 1546 1546 1545 1545 1545 1544 1544 1543 1542 1542 1541 1540 1539 1539 1538 1537 1537 1536 1536 1535 1535 1534
1533 1534 1535 1535 1536 1538 1539 1540 1541 1541 1542 1542 1542 1542 1542 1542 1542 1541 1540 1540 1540 1540 1539 1538 1537 1536 1535 1534 1533 1532 1532 1531 1531 1530 1529 1529 1528 1528
1529 1530 1531 1532 1532 1534 1535 1536 1536 1537 1537 1538 1538 1538 1538 1538 1537 1537 1536 1535 1535 1535 1534 1533 1531 1530 1528 1528 1527 1526 1525 1524 1524 1523 1523 1522 1521 1521
1524 1525 1527 1528 1528 1529 1530 1531 1532 1532 1532 1533 1532 1533 1533 1533 1533 1532 1531 1530 1529 1529 1528 1526 1525 1523 1522 1521 1520 1519 1518 1517 1517 1516 1515 1515 1514 1513
1520 1521 1522 1523 1524 1525 1525 1526 1527 1527 1528 1528 1527 1527 1527 1527 1527 1527 1526 1524 1523 1523 1522 1519 1518 1517 1516 1515 1514 1513 1512 1511 1509 1509 1508 1507 1506 1505
1517 1518 1519 1520 1520 1520 1521 1521 1521 1522 1522 1522 1522 1521 1522 1521 1521 1521 1519 1518 1516 1516 1516 1513 1511 1510 1509 1508 1507 1506 1504 1503 1502 1501 1500 1499 1498 1497
1513 1514 1515 1515 1516 1516 1517 1517 1517 1517 1517 1517 1516 1516 1515 1515 1515 1514 1513 1511 1509 1509 1509 1507 1504 1502 1501 1500 1499 1498 1497 1495 1494 1493 1492 1491 1489 1488
1510 1510 1511 1511 1512 1512 1512 1511 1511 1511 1511 1511 1510 1510 1509 1509 1508 1508 1506 1505 1503 1502 1501 1501 1498 1496 1492 1491 1491 1490 1489 1487 1486 1485 1483 1482 1481 1479
1506 1507 1507 1507 1507 1507 1507 1507 1506 1507 1506 1505 1504 1504 1503 1503 1502 1501 1500 1499 1497 1495 1495 1494 1491 1490 1487 1483 1483 1483 1481 1479 1478 1476 1475 1474 1473 1471
1503 1503 1503 1503 1503 1503 1502 1502 1502 1502 1501 1500 1500 1499 1498 1497 1496 1495 1494 1493 1491 1490 1489 1488 1485 1483 1481 1478 1475 1474 1474 1472 1470 1468 1467 1466 1465 1463
1499 1500 1499 1499 1499 1499 1498 1498 1498 1497 1497 1496 1495 1495 1494 1493 1491 1490 1488 1487 1485 1484 1483 1481 1479 1477 1475 1472 1469 1467 1466 1464 1463 1461 1459 1457 1456 1455
1497 1496 1496 1496 1496 1495 1495 1495 1494 1494 1493 1492 1491 1490 1489 1488 1486 1485 1483 1481 1479 1477 1476 1475 1473 1471 1468 1466 1464 1461 1459 1457 1455 1453 1451 1449 1447 1445
1494 1493 1493 1493 1493 1492 1492 1492 1491 1490 1489 1488 1487 1485 1484 1483 1481 1480 1478 1475 1474 1471 1470 1468 1467 1465 1463 1460 1457 1454 1452 1450 1448 1446 1443 1439 1438 1437
1492 1492 1492 1491 1490 1490 1489 1488 1487 1486 1485 1484 1482 1481 1479 1478 1476 1474 1472 1471 1469 1466 1464 1462 1460 1458 1455 1453 1453 1449 1446 1443 1440 1438 1436 1432 1428 1427
1491 1490 1490 1489 1488 1487 1486 1486 1485 1483 1482 1480 1478 1477 1475 1473 1471 1469 1468 1466 1464 1461 1459 1457 1455 1453 1450 1446 1444 1444 1440 1436 1433 1431 1428 1425 1421 1418
1490 1489 1489 1487 1486 1485 1484 1483 1481 1480 1478 1476 1474 1473 1471 1469 1467 1465 1463 1461 1458 1456 1454 1452 1451 1448 1445 1442 1437 1434 1434 1431 1427 1424 1421 1417 1414 1411
1489 1488 1487 1486 1484 1483 1481 1479 1478 1476 1474 1472 1470 1468 1466 1464 1462 1460 1458 1456 1454 1451 1449 1447 1445 1443 1440 1437 1432 1428 1426 1425 1422 1419 1414 1410 1405 1402
1488 1487 1485 1484 1482 1480 1478 1476 1474 1472 1470 1468 1466 1464 1462 1460 1458 1456 1453 1451 1448 1446 1443 1441 1439 1436 1434 1431 1427 1423 1419 1417 1414 1412 1408 1405 1401 1395
1487 1485 1483 1481 1479 1477 1475 1473 1471 1469 1466 1464 1462 1460 1458 1456 1453 1451 1448 1446 1443 1441 1438 1435 1433 1430 1428 1425 1422 1418 1414 1410 1407 1403 1400 1398 1395 1391